Weather reports worldwide

Advertisment
Kempten, Germany (10946): temperature & dewpoint: 19.08.2019 08:00:00 - 25.08.2019 08:00:00 (CEST)Kempten, Germany (10946): temperature 5cm & temperature -5cm: 19.08.2019 08:00:00 - 25.08.2019 08:00:00 (CEST)Kempten, Germany (10946): temperature -20cm & temperature -100cm: 19.08.2019 08:00:00 - 25.08.2019 08:00:00 (CEST)Kempten, Germany (10946): wind speed & gusts: 19.08.2019 08:00:00 - 25.08.2019 08:00:00 (CEST)Kempten, Germany (10946): wind direction: 19.08.2019 08:00:00 - 25.08.2019 08:00:00 (CEST)Kempten, Germany (10946): reduced air pressure: 19.08.2019 08:00:00 - 25.08.2019 08:00:00 (CEST)Kempten, Germany (10946): visibility: 19.08.2019 08:00:00 - 25.08.2019 08:00:00 (CEST)Kempten, Germany (10946): sunshine duration: 19.08.2019 08:00:00 - 25.08.2019 08:00:00 (CEST)Kempten, Germany (10946): precipitation: 19.08.2019 08:00:00 - 25.08.2019 08:00:00 (CEST)
Date & Time tt [°C] td [°C] tt 5cm [°C] tt -5cm [°C] tt -20cm [°C] tt -100cm [°C] ff [km/h] ff [kn] fx [km/h] fx [kn] dd ppp [hPa] vv [km] sd [min] rr [mm]
25.08.2019 08:00:00 - - - - - - - - - - - - - - -
25.08.2019 07:00:00 12,6 11,7 11,1 15,6 18,3 17,3 6 3 11 6 ESE 1020,5 9 0 0,0
25.08.2019 06:00:00 12,9 11,9 11,3 16,0 18,5 17,3 6 4 12 7 SE 1020,2 12 0 0,0
25.08.2019 05:00:00 13,2 12,3 11,7 16,4 18,8 17,3 8 5 13 7 ESE 1020,1 10 0 0,0
25.08.2019 04:00:00 13,5 12,6 12,0 16,8 19,1 17,3 6 4 11 6 SE 1020,0 10 0 0,0
25.08.2019 03:00:00 14,2 13,3 12,6 17,2 19,4 17,3 6 4 11 6 SE 1019,8 10 0 0,0
25.08.2019 02:00:00 14,3 13,7 12,6 17,7 19,7 17,3 6 3 11 6 SE 1019,7 6 0 0,0
25.08.2019 01:00:00 14,9 13,8 13,2 18,2 20,0 17,3 7 4 13 7 SE 1019,4 10 0 0,0
25.08.2019 00:00:00 14,5 13,7 13,4 19,0 20,3 17,4 7 4 11 6 ESE 1019,8 10 0 0,0
24.08.2019 23:00:00 15,5 14,5 14,2 19,8 20,5 17,4 5 3 10 6 E 1019,7 9 0 0,0
24.08.2019 22:00:00 16,8 15,5 15,4 20,7 20,8 17,4 6 3 8 4 ESE 1019,4 10 0 0,0
24.08.2019 21:00:00 18,8 16,3 16,6 21,8 20,9 17,4 5 3 10 5 SE 1018,7 15 0 0,0
24.08.2019 20:00:00 21,5 14,4 20,2 23,1 20,8 17,4 8 5 24 13 ESE 1018,1 24 28 0,0
24.08.2019 19:00:00 23,6 17,8 24,9 24,7 20,6 17,4 8 4 16 8 SSW 1017,3 22 47 0,0
24.08.2019 18:00:00 24,4 15,6 25,9 25,0 20,3 17,4 2 1 10 5 SW 1017,1 27 38 0,0
24.08.2019 17:00:00 24,5 15,3 26,3 25,6 19,8 17,4 4 2 14 8 NNW 1016,8 26 60 0,0
24.08.2019 16:00:00 24,4 15,5 29,9 25,3 19,2 17,4 6 4 13 7 NW 1017,3 5 60 0,0
24.08.2019 15:00:00 24,4 15,9 30,7 24,3 18,5 17,4 5 3 14 8 NW 1017,5 24 60 0,0
24.08.2019 14:00:00 23,1 16,0 28,8 22,9 17,9 17,4 6 3 16 8 NNE 1018,0 20 60 0,0
24.08.2019 13:00:00 22,4 16,7 27,8 21,1 17,4 17,4 7 4 13 7 NNE 1018,4 14 60 0,0
24.08.2019 12:00:00 20,6 15,3 25,2 19,3 17,0 17,4 4 2 10 6 NNE 1019,2 11 60 0,0
24.08.2019 11:00:00 19,3 15,3 23,2 17,7 16,8 17,4 3 2 7 4 N 1019,8 16 51 0,0
24.08.2019 10:00:00 15,6 14,0 17,6 16,7 16,7 17,4 3 2 9 5 SSE 1020,8 8 0 0,0
24.08.2019 09:00:00 14,7 14,4 15,4 16,0 16,7 17,4 4 2 9 5 SSE 1021,1 2,3 0 0,0
24.08.2019 08:00:00 14,6 14,5 14,9 15,7 16,8 17,4 4 2 8 5 S 1021,0 0,5 0 0,0
24.08.2019 07:00:00 14,1 13,9 14,1 15,5 16,9 17,4 2 1 4 2 ESE 1021,1 1,0 0 0,0
24.08.2019 06:00:00 13,5 13,2 13,3 15,3 17,1 17,5 0 0 3 2 N 1021,2 3,0 0 0,0
24.08.2019 05:00:00 12,3 11,9 11,2 15,5 17,3 17,5 2 1 6 4 S 1021,5 5 0 0,0
24.08.2019 04:00:00 13,1 12,7 12,0 15,9 17,4 17,5 4 2 7 4 ESE 1021,4 2,4 0 0,0
24.08.2019 03:00:00 14,1 13,7 12,7 16,4 17,5 17,5 3 2 6 3 E 1021,4 3,2 0 0,0
24.08.2019 02:00:00 15,7 14,8 14,6 17,0 17,6 17,5 3 2 7 4 E 1021,2 5 0 0,0
24.08.2019 01:00:00 16,3 15,2 15,0 17,1 17,7 17,5 4 2 8 4 NNE 1021,4 7 0 0,0
24.08.2019 00:00:00 17,2 15,4 16,0 17,4 17,8 17,5 1 1 8 5 NW 1021,2 9 0 0,0
23.08.2019 23:00:00 17,6 15,3 16,7 17,7 17,8 17,5 5 3 11 6 NE 1021,6 11 0 0,0
23.08.2019 22:00:00 17,7 15,1 17,0 17,9 17,8 17,5 5 3 9 5 ENE 1022,1 11 0 0,0
23.08.2019 21:00:00 18,2 14,8 17,4 18,2 17,8 17,5 4 2 10 5 NE 1022,1 12 0 0,0
23.08.2019 20:00:00 18,5 14,7 17,9 18,5 17,8 17,5 3 1 10 5 E 1021,8 17 0 0,0
23.08.2019 19:00:00 19,0 14,2 18,8 18,7 17,7 17,5 4 2 11 6 ENE 1021,7 18 0 0,0
23.08.2019 18:00:00 19,0 13,7 19,2 19,0 17,6 17,5 8 5 17 9 NE 1021,8 26 0 0,0
23.08.2019 17:00:00 19,3 13,9 19,9 19,2 17,4 17,5 9 5 17 9 E 1021,8 27 0 0,0
23.08.2019 16:00:00 19,5 14,0 21,0 19,4 17,1 17,5 8 4 19 10 E 1021,9 22 1 0,0
23.08.2019 15:00:00 19,6 14,0 - 19,0 - 17,6 9 5 21 12 NE 1022,2 25 0 0,0
23.08.2019 14:00:00 18,7 13,7 - 18,3 - 17,6 9 5 24 13 E 1022,9 23 0 0,0
23.08.2019 13:00:00 18,1 13,5 - 17,6 - 17,6 8 4 17 9 ENE 1023,4 22 0 0,0
23.08.2019 12:00:00 17,2 12,8 - 16,9 - 17,6 7 4 20 11 E 1023,9 31 1 0,0
23.08.2019 11:00:00 16,1 12,7 - 16,1 - 17,6 6 4 15 8 ENE 1024,2 20 0 0,0
23.08.2019 10:00:00 15,1 12,7 - 15,3 - 17,6 3 2 10 5 ENE 1024,7 13 0 0,0
23.08.2019 09:00:00 14,1 12,4 - 14,7 - 17,6 4 2 8 4 ENE 1025,0 11 0 0,0
23.08.2019 08:00:00 13,0 12,2 - 14,3 - 17,6 0 0 5 3 N 1025,5 9 0 0,0
23.08.2019 07:00:00 12,2 11,4 - 14,1 - 17,6 3 1 5 3 NNW 1025,6 14 0 0,0
23.08.2019 06:00:00 11,5 10,9 - 13,9 - 17,6 0 0 14 8 N 1025,7 12 0 0,0
23.08.2019 05:00:00 10,4 9,9 - 13,9 - 17,6 4 2 14 8 ENE 1026,2 11 0 0,0
23.08.2019 04:00:00 10,3 9,6 - 14,3 - 17,6 5 3 8 4 E 1026,2 9 0 0,0
23.08.2019 03:00:00 12,3 11,5 - 14,8 - 17,6 4 2 9 5 ESE 1025,7 13 0 0,0
23.08.2019 02:00:00 13,9 12,2 - 15,2 - 17,6 4 2 17 9 SE 1025,4 25 0 0,0
23.08.2019 01:00:00 13,9 11,9 - 15,2 - 17,6 9 5 19 10 E 1025,7 20 0 0,0
23.08.2019 00:00:00 12,2 11,5 - 15,3 - 17,6 3 2 6 3 E 1026,5 7 0 0,0
22.08.2019 23:00:00 12,2 11,2 - 15,7 - 17,6 3 2 11 6 ESE 1026,7 8 0 0,0
22.08.2019 22:00:00 14,5 12,0 - 16,5 - 17,7 8 4 21 12 ESE 1026,2 18 0 0,0
22.08.2019 21:00:00 15,0 12,4 - 16,7 - 17,7 3 2 11 6 ESE 1025,7 22 0 0,0
22.08.2019 20:00:00 15,3 12,4 - 17,1 - 17,7 5 3 13 7 E 1025,2 22 0 0,0
22.08.2019 19:00:00 15,8 12,3 - 17,4 - 17,7 3 2 15 8 E 1024,6 20 0 0,0
22.08.2019 18:00:00 16,0 12,3 - 17,7 - 17,7 5 3 14 8 E 1024,4 23 0 0,0
22.08.2019 17:00:00 15,6 12,1 - 17,6 - 17,7 5 3 19 10 ESE 1024,6 23 0 0,0
22.08.2019 16:00:00 - - - - - - - - - - - - - - -
22.08.2019 15:00:00 - - - - - - - - - - - - - - -
22.08.2019 14:00:00 - - - - - - - - - - - - - - -
22.08.2019 13:00:00 - - - - - - - - - - - - - - -
22.08.2019 12:00:00 - - - - - - - - 15 8 - - - 0 0,0
22.08.2019 11:00:00 13,8 11,5 15,6 15,7 16,6 17,7 6 3 13 7 NE 1024,8 21 0 0,0
22.08.2019 10:00:00 13,2 11,3 14,0 15,4 16,6 17,7 6 4 13 7 NE 1024,9 20 0 0,0
22.08.2019 09:00:00 13,0 11,3 13,9 15,1 16,7 17,7 4 2 12 7 NE 1024,5 13 0 0,0
22.08.2019 08:00:00 13,0 11,6 13,3 14,9 16,7 17,7 4 2 13 7 ENE 1024,4 12 0 0,0
22.08.2019 07:00:00 13,0 11,7 12,9 14,9 16,8 17,7 4 2 13 7 ENE 1024,1 14 0 0,0
22.08.2019 06:00:00 12,8 11,2 12,7 15,0 16,9 17,7 5 3 16 9 ENE 1023,8 18 0 0,0
22.08.2019 05:00:00 13,0 11,3 12,9 15,1 17,1 17,7 5 3 19 10 E 1024,0 18 0 0,0
22.08.2019 04:00:00 13,1 11,5 12,6 15,1 17,2 17,7 6 4 14 8 E 1024,0 18 0 0,0
22.08.2019 03:00:00 12,7 11,4 11,8 15,0 17,4 17,7 4 2 8 4 NE 1024,4 23 0 0,0
22.08.2019 02:00:00 12,4 11,6 11,1 15,3 17,6 17,7 2 1 10 5 NNE 1024,9 12 0 0,0
22.08.2019 01:00:00 13,3 11,8 11,7 15,7 17,7 17,7 4 2 15 8 NE 1024,9 19 0 0,0
22.08.2019 00:00:00 14,0 11,7 12,9 16,1 17,9 17,7 5 3 18 10 ENE 1025,1 25 0 0,0
21.08.2019 23:00:00 14,4 11,8 13,6 16,4 18,1 17,8 7 4 18 10 E 1025,1 26 0 0,0
21.08.2019 22:00:00 14,7 11,9 14,3 16,8 18,2 17,8 8 4 19 10 E 1025,7 31 0 0,0
21.08.2019 21:00:00 14,8 11,9 14,5 17,1 18,3 17,8 7 4 17 9 E 1025,6 35 0 0,0
21.08.2019 20:00:00 - - - - - - - - - - - - - - -
21.08.2019 19:00:00 - - - - - - - - - - - - - - -
21.08.2019 18:00:00 - - - - - - - - - - - - - - -
21.08.2019 17:00:00 - - - - - - - - - - - - - - -
21.08.2019 16:00:00 - - - - - - - - - - - - - - -
21.08.2019 15:00:00 - - - - - - - - - - - - - - -
21.08.2019 14:00:00 - - - - - - - - - - - - - - -
21.08.2019 13:00:00 - - - - - - - - - - - - - - -
21.08.2019 12:00:00 - - - - - - - - - - - - - - -
21.08.2019 11:00:00 - - - - - - - - 21 11 - - - 35 0,0
21.08.2019 10:00:00 14,4 10,4 16,3 15,7 16,7 17,8 7 4 22 12 ENE 1027,6 33 43 0,0
21.08.2019 09:00:00 13,1 10,4 14,0 15,2 16,7 17,8 9 5 16 8 E 1028,1 47 1 0,0
21.08.2019 08:00:00 12,2 11,2 12,5 14,7 16,8 17,8 3 2 7 4 N 1028,3 21 0 0,0
21.08.2019 07:00:00 11,5 10,9 11,4 14,6 16,9 17,8 3 1 6 3 NNW 1028,4 13 0 0,0
21.08.2019 06:00:00 11,4 10,5 11,4 14,7 17,1 17,8 3 2 7 4 NNE 1028,4 30 0 0,0
21.08.2019 05:00:00 11,4 10,6 11,4 14,7 17,2 17,8 3 2 8 4 ENE 1028,6 25 0 0,0
21.08.2019 04:00:00 11,3 10,5 11,1 14,9 17,3 17,8 3 2 8 5 NNE 1028,5 40 0 0,0
21.08.2019 03:00:00 11,4 10,9 11,4 15,1 17,5 17,8 3 2 8 5 E 1028,4 21 0 0,3
21.08.2019 02:00:00 11,4 10,7 11,3 15,2 17,7 17,8 4 2 9 5 S 1028,3 12 0 1,0
21.08.2019 01:00:00 11,6 11,0 11,6 15,4 17,8 17,8 4 2 7 4 SE 1028,4 8 0 1,0
21.08.2019 00:00:00 11,7 11,0 11,7 15,5 18,0 17,9 2 1 8 5 SW 1028,5 6 0 1,3
20.08.2019 23:00:00 11,8 11,3 11,7 15,7 18,3 17,8 6 3 21 11 NW 1028,1 7 0 2,4
20.08.2019 22:00:00 12,2 11,6 12,1 16,1 18,5 17,8 8 4 19 11 NW 1027,7 3,9 0 3,0
20.08.2019 21:00:00 12,7 12,3 12,7 16,6 18,7 17,8 4 2 13 7 NW 1026,2 2,7 0 2,0
20.08.2019 20:00:00 12,8 12,2 12,9 17,1 18,9 17,8 6 4 14 8 NNW 1024,9 7 0 1,4
20.08.2019 19:00:00 13,2 12,6 13,1 17,6 19,0 17,8 10 5 25 14 NW 1025,0 3,9 0 0,8
20.08.2019 18:00:00 14,0 13,4 14,3 17,7 19,2 17,7 9 5 17 9 WNW 1023,9 4,5 0 2,1
20.08.2019 17:00:00 14,2 13,3 14,3 18,2 19,3 17,7 6 3 15 8 WSW 1022,5 5 0 1,3
20.08.2019 16:00:00 14,5 13,6 14,8 18,7 19,4 17,7 8 4 27 15 NW 1021,7 9 0 5,5
20.08.2019 15:00:00 16,0 15,5 16,4 19,7 19,2 17,7 9 5 22 12 NW 1020,5 3,7 0 0,9
20.08.2019 14:00:00 17,8 16,7 18,5 19,9 19,1 17,7 6 3 13 7 NW 1019,4 9 0 0,5
20.08.2019 13:00:00 17,8 17,1 18,3 19,4 19,0 17,7 5 3 11 6 NW 1019,7 5 0 0,9
20.08.2019 12:00:00 17,6 16,7 18,2 19,2 19,0 17,6 5 3 11 6 NW 1020,0 8 0 0,5
20.08.2019 11:00:00 17,0 16,4 17,3 18,6 19,0 17,6 4 2 7 4 WNW 1020,0 6 0 0,6
20.08.2019 10:00:00 16,2 15,5 16,6 18,2 19,0 17,6 3 2 8 4 NNW 1020,2 7 0 0,5
20.08.2019 09:00:00 15,7 15,2 16,1 18,0 19,1 17,6 3 1 7 4 W 1020,1 4,4 0 0,9
20.08.2019 08:00:00 15,7 15,3 15,6 18,0 19,2 17,6 3 1 8 4 NW 1020,3 3,7 - 0,2
20.08.2019 07:00:00 16,0 15,4 16,1 18,1 19,3 17,6 3 1 8 4 NW 1020,0 6 - 0,0
20.08.2019 06:00:00 16,2 16,0 16,0 18,2 19,4 17,6 4 2 9 5 NW 1019,6 3,2 - 0,0
20.08.2019 05:00:00 16,1 15,7 16,1 18,3 19,6 17,6 6 3 12 6 NW 1019,6 5 - 0,0
20.08.2019 04:00:00 16,4 16,3 16,4 18,4 19,7 17,6 0 0 8 4 N 1019,6 4,5 - 0,0
20.08.2019 03:00:00 16,3 16,0 15,9 18,5 19,9 17,6 2 1 7 4 ESE 1019,6 3,6 - 0,4
20.08.2019 02:00:00 16,6 16,2 16,3 18,8 20,0 17,6 4 2 12 7 SE 1019,7 6 - 0,5
20.08.2019 01:00:00 16,7 16,5 16,6 19,0 20,2 17,6 4 2 7 4 WNW 1019,9 4,8 - 1,9
20.08.2019 00:00:00 17,1 16,8 16,7 19,3 20,3 17,6 0 0 8 4 N 1019,7 6 - 0,1
19.08.2019 23:00:00 17,1 16,8 16,9 19,6 20,5 17,6 4 2 6 4 SE 1019,3 6 - 0,8
19.08.2019 22:00:00 16,7 16,4 16,6 19,8 20,7 17,6 5 3 9 5 ESE 1019,0 8 - 0,0
19.08.2019 21:00:00 17,2 16,8 16,7 20,2 20,8 17,6 5 3 - - W 1018,8 10 - -
19.08.2019 20:00:00 - - - - - - - - - - - - - - -
19.08.2019 19:00:00 - - - - - - - - - - - - - - -
19.08.2019 18:00:00 - - - - - - - - - - - - - - -
19.08.2019 17:00:00 - - - - - - - - - - - - - - -
19.08.2019 16:00:00 - - - - - - - - - - - - - - -
19.08.2019 15:00:00 - - - - - - - - - - - - - - -
19.08.2019 14:00:00 21,3 15,0 24,9 21,6 19,4 17,6 6 3 16 9 W 1016,5 50 10 0,0
19.08.2019 13:00:00 19,9 15,0 21,1 20,8 19,2 17,5 6 4 13 7 SW 1016,7 59 3 0,0
19.08.2019 12:00:00 20,2 15,6 22,8 19,8 19,1 17,5 5 3 10 6 S 1016,5 48 17 0,0
19.08.2019 11:00:00 17,7 14,9 18,1 18,7 19,1 17,5 6 4 18 10 S 1017,1 65 0 0,0
19.08.2019 10:00:00 16,7 15,3 16,6 18,0 19,1 17,5 8 5 16 9 SSW 1017,2 63 0 0,1
19.08.2019 09:00:00 16,1 15,1 15,8 17,7 19,3 17,5 7 4 23 12 SSW 1017,2 31 0 0,0
19.08.2019 08:00:00 15,6 14,8 15,2 17,7 19,4 17,5 6 4 14 7 S 1017,9 15 0 0,7

tt = temperature
td = dewpoint
tt 5cm = temperature 5cm
tt -5cm = temperature -5cm
tt -20cm = temperature -20cm
tt -100cm = temperature -100cm
ff = wind speed
fx = gusts
dd = wind direction
ppp = reduced air pressure
vv = visibility
sd = sunshine duration
rr = precipitation

Next stations